Temperature
24 24 24 23 21 21 24 25 25 26 26 26 26 25 23 22 22 21 20 20 20 20 20 20 20 20 20 20 20 20 20 20 20 20 20 20 20 20 20 20 20 20 20 20 20 20 19 19 19
24 24 24 23 20 21 24 25 26 27 27 26 26 25 23 22 21 20 19 20 20 20 20 20 20 20 20 20 20 20 20 20 20 20 20 20 20 20 20 20 20 20 20 20 20 19 19 19 19
25 24 24 21 22 22 24 25 26 28 28 27 26 25 23 22 21 20 21 20 20 20 20 20 20 20 20 20 20 20 19 19 20 20 20 20 20 20 20 20 20 20 20 20 19 19 19 19 19
25 25 24 22 24 24 25 26 27 27 27 26 25 24 23 22 22 22 21 20 21 21 20 20 20 20 20 20 20 19 19 19 19 19 19 20 20 20 20 20 20 20 19 19 19 19 19 19 19
25 25 22 23 25 26 26 27 28 27 26 25 24 22 22 22 22 21 21 21 21 21 20 20 20 20 20 20 20 19 19 19 19 19 19 19 19 19 19 19 19 19 19 19 19 19 19 19 19
26 22 21 22 24 26 27 29 28 26 25 25 24 22 21 21 21 21 21 21 21 21 21 20 20 20 20 20 20 19 19 19 19 19 19 19 19 19 19 19 19 19 19 19 19 19 19 19 19
25 21 22 22 23 25 27 28 28 26 26 26 24 22 21 21 21 21 21 21 21 21 21 21 20 20 20 20 20 19 19 19 19 19 19 19 19 19 19 19 19 19 19 19 19 19 19 19 19
26 21 22 22 23 24 26 28 28 28 26 26 25 22 21 21 21 21 21 21 21 21 21 21 21 20 20 20 20 19 19 19 19 19 19 19 19 19 19 19 19 19 19 19 19 19 19 19 19
26 21 21 22 22 23 25 27 28 28 27 26 26 25 24 22 21 21 21 21 21 21 21 21 21 21 20 20 20 19 19 19 19 19 19 19 19 19 18 18 19 19 19 19 19 19 19 19 19
25 21 23 22 22 22 24 26 27 26 25 25 25 24 23 22 22 21 21 21 21 21 21 21 21 21 20 20 20 20 19 19 19 19 19 19 18 18 18 18 19 19 19 19 19 19 19 19 19
25 23 23 23 24 24 25 25 26 25 24 24 24 23 23 22 22 22 22 22 22 22 21 21 21 21 21 20 20 20 19 19 19 19 19 18 18 18 18 18 19 19 19 19 19 19 19 19 19
25 25 24 24 26 26 26 26 26 26 25 26 25 25 23 23 23 23 22 22 22 22 22 21 21 21 21 20 20 20 19 19 19 19 19 18 18 18 18 18 19 19 19 19 19 18 18 18 18
25 25 26 26 26 26 26 26 25 25 25 25 25 24 23 23 23 23 23 22 22 22 22 22 21 21 21 21 20 20 20 19 19 19 19 18 18 18 18 18 18 18 19 19 18 18 18 18 18
26 26 26 27 27 26 25 25 24 23 24 24 23 23 22 22 22 22 22 22 22 22 22 22 22 21 21 21 20 20 20 20 19 19 19 18 18 18 18 18 18 18 18 18 18 18 18 18 18
27 26 25 25 25 24 24 22 21 22 23 22 22 22 21 21 21 21 21 21 21 21 21 21 21 21 21 21 21 20 20 20 19 19 19 18 18 18 18 18 18 18 18 18 18 18 18 18 18
25 24 23 23 23 23 23 21 20 21 21 20 20 20 20 20 19 19 20 20 20 20 21 21 21 21 21 21 21 20 20 20 20 19 19 19 18 18 18 18 18 18 18 18 18 18 18 18 18
21 21 22 22 22 22 21 20 19 20 20 18 18 18 18 18 18 19 19 19 19 20 20 20 20 20 20 21 21 20 20 20 20 19 19 19 19 18 18 18 19 18 18 18 18 18 18 18 18
21 21 21 21 21 21 19 18 18 18 17 16 16 16 16 17 17 17 18 18 19 19 19 19 20 20 20 20 20 20 20 20 20 19 19 19 19 18 19 19 19 18 18 18 18 18 18 18 18
21 20 20 20 21 20 18 17 16 16 16 15 15 15 15 15 16 17 17 18 18 18 19 19 19 19 20 20 20 20 20 20 19 19 19 19 19 19 19 19 19 18 18 18 18 18 18 18 18
19 19 18 19 20 20 17 16 16 16 15 14 14 14 14 14 15 16 16 17 17 18 18 18 18 19 19 19 19 19 20 20 20 19 19 19 19 19 19 19 19 18 18 18 18 18 18 18 18
19 18 18 18 18 18 17 15 14 15 14 14 13 13 13 13 13 15 15 16 16 17 17 17 17 18 19 19 19 19 19 19 19 19 19 19 18 18 18 18 18 18 18 18 18 18 18 18 17
17 18 19 19 17 16 17 14 13 13 13 13 12 12 12 12 13 14 14 15 15 15 16 16 17 17 18 18 19 19 19 19 19 19 19 19 18 18 18 18 18 18 18 18 18 17 17 17 17
18 18 17 18 17 15 15 14 12 12 12 12 12 11 11 12 12 13 13 14 14 15 15 15 16 16 16 17 18 18 18 19 19 19 18 18 18 18 18 17 17 17 17 17 17 17 17 17 17
17 16 16 14 13 13 13 13 12 11 11 11 12 11 11 11 12 12 13 13 14 14 14 14 15 15 16 16 16 17 18 18 18 18 18 18 17 17 17 17 17 17 17 17 17 17 17 17 16
14 13 13 13 12 13 13 12 11 12 12 11 11 11 11 11 11 12 12 13 13 13 13 13 14 14 15 15 16 16 16 17 17 17 17 17 17 17 16 16 16 16 16 16 16 16 16 16 16
15 13 12 13 13 12 12 12 11 12 12 11 11 11 11 11 11 11 12 12 12 13 13 13 13 13 14 14 15 15 15 16 16 16 16 16 16 16 16 15 15 15 15 15 15 15 15 15 15
15 13 14 12 13 12 12 12 12 12 12 11 11 11 10 11 11 11 12 12 12 12 12 13 13 13 13 14 14 14 14 15 15 15 15 15 15 15 15 15 15 15 14 15 15 15 15 15 15
15 14 11 12 12 12 12 11 11 11 11 11 11 10 10 11 11 11 11 12 12 12 12 12 13 13 13 13 13 13 13 14 14 14 14 14 14 14 14 14 14 14 14 14 14 15 15 15 15
14 13 12 11 11 11 11 11 11 10 10 10 10 10 11 11 11 11 12 12 12 12 12 12 12 13 13 13 13 13 13 13 13 13 13 13 13 13 13 13 14 14 14 14 14 14 15 15 15
14 13 12 11 11 11 11 11 11 10 10 10 10 11 12 12 12 12 12 12 12 12 12 12 12 12 12 13 13 13 13 13 13 13 13 13 13 13 13 13 13 14 14 14 14 14 15 15 15
Wind_Speed
6 2 3 3 6 6 4 2 4 6 6 6 8 10 8 5 3 6 6 14 17 15 16 18 18 17 16 16 16 15 15 15 14 13 13 13 12 11 11 10 10 9 9 9 9 9 9 8 8
2 0 3 4 6 5 1 2 6 5 7 9 8 8 7 5 6 9 7 15 18 16 17 17 18 17 16 16 15 15 15 14 14 13 12 12 11 11 10 10 9 9 9 9 8 8 8 7 7
2 2 3 4 4 6 4 3 6 5 7 7 6 6 6 6 8 6 11 19 17 15 16 18 19 17 16 15 15 15 15 14 14 13 12 12 11 11 10 10 9 9 9 8 8 7 7 6 6
1 4 5 4 3 6 7 6 5 6 6 6 7 6 4 5 7 12 20 19 17 13 16 18 18 17 16 15 14 15 15 15 13 12 12 11 11 10 10 10 9 9 9 8 7 6 5 5 5
3 5 6 3 0 2 4 4 5 7 5 6 9 6 4 3 16 22 20 18 17 13 15 17 18 17 16 15 14 14 15 14 13 12 12 11 10 10 10 9 9 8 8 7 6 5 5 5 4
5 5 5 3 4 2 1 3 7 10 9 9 9 6 3 7 16 18 18 16 16 15 15 16 18 17 15 15 14 14 15 14 13 13 12 11 11 10 10 9 8 7 6 6 5 5 5 5 4
4 4 2 2 4 3 3 3 7 9 8 7 8 7 5 7 12 16 16 15 15 14 13 13 15 16 15 15 14 14 15 14 14 13 12 11 11 11 10 10 9 7 6 5 5 5 4 4 4
5 4 3 3 4 5 6 3 5 9 7 8 7 9 7 9 12 14 15 14 14 12 12 11 13 14 14 14 15 15 15 15 14 14 13 12 12 12 11 11 9 8 6 6 5 4 4 3 2
5 5 2 1 2 5 7 5 5 7 8 4 4 6 11 15 14 14 12 11 12 12 11 11 11 12 14 14 15 15 15 15 15 14 14 13 11 11 12 12 11 9 8 7 6 5 4 4 4
5 4 3 3 3 3 5 3 3 6 8 6 7 8 14 14 15 15 16 16 15 15 14 12 12 12 13 14 14 13 14 14 14 14 14 13 12 11 11 12 12 11 9 8 7 7 6 6 5
4 5 4 2 3 3 2 3 3 6 4 5 11 15 16 13 14 15 17 18 19 17 16 15 14 12 12 9 11 11 11 12 13 14 14 13 12 11 11 10 11 11 10 8 7 7 7 6 6
3 2 5 5 5 3 2 0 2 3 2 5 13 17 15 13 12 13 15 17 15 16 17 16 16 13 13 11 10 10 9 9 10 13 15 12 7 7 7 8 9 9 9 7 7 6 8 8 8
2 1 2 5 6 5 1 1 2 4 5 6 11 10 9 7 4 2 5 8 11 15 17 17 17 16 13 10 9 10 9 10 12 13 15 14 8 5 6 7 8 10 10 8 6 6 6 7 8
2 2 3 3 3 2 2 4 6 7 9 11 11 8 6 5 4 4 5 2 3 6 9 13 17 17 15 13 11 9 10 11 12 12 15 16 12 8 7 6 6 8 10 10 7 6 4 4 3
2 3 5 6 4 3 5 7 6 7 10 12 10 8 9 8 8 8 7 6 4 3 1 4 10 13 15 14 14 10 11 12 10 12 15 16 15 12 10 8 8 8 12 10 6 4 4 3 3
6 5 4 5 6 5 5 3 6 9 11 12 11 11 10 11 10 9 9 9 8 8 6 3 3 7 10 11 11 9 10 10 10 13 14 16 16 15 11 8 8 10 10 6 4 3 4 3 3
7 4 4 6 7 5 6 3 7 10 13 14 14 13 12 12 13 11 11 11 11 10 9 8 6 3 5 8 8 8 8 9 10 11 11 14 15 15 10 7 7 10 6 4 5 3 3 3 3
4 3 4 6 8 7 7 7 12 15 17 16 14 14 13 14 13 12 12 11 11 10 10 10 9 8 5 3 4 4 6 7 7 8 9 11 12 13 10 6 7 8 6 5 4 4 3 3 3
5 5 4 3 6 6 9 11 13 15 17 16 15 14 14 14 13 14 14 13 12 12 11 10 10 9 7 3 2 4 6 7 6 6 8 9 9 11 9 6 7 7 7 7 7 4 4 2 2
9 7 6 5 6 4 9 12 11 16 16 14 15 15 16 16 16 16 15 15 14 13 11 10 9 9 7 5 4 3 4 4 5 5 5 7 7 9 9 8 7 7 6 6 6 5 4 2 3
6 5 5 5 6 5 6 7 11 11 16 17 17 16 16 16 16 16 16 14 13 13 12 11 9 9 9 8 4 2 1 1 2 4 5 5 7 8 7 6 7 7 7 7 6 5 6 4 2
5 7 7 5 3 3 3 2 7 10 15 19 18 17 17 16 15 14 14 14 13 12 11 10 9 9 9 8 5 4 4 6 7 5 5 5 6 7 8 7 6 6 5 6 5 5 4 5 3
6 9 6 4 1 2 6 4 5 8 14 17 16 16 16 15 15 14 13 12 11 11 11 10 10 9 9 9 7 4 4 5 4 4 6 5 4 4 5 6 5 5 4 5 5 4 4 4 4
6 6 7 7 5 4 5 4 5 8 12 15 15 15 15 15 15 13 12 11 10 10 10 10 10 10 10 9 7 5 3 3 4 5 6 5 4 4 5 5 5 5 4 5 5 5 5 4 4
9 7 6 8 6 2 4 6 4 7 10 12 14 15 14 13 13 12 12 11 11 11 11 10 10 9 10 9 8 6 3 0 2 4 5 5 4 4 5 5 4 4 4 4 4 4 4 4 4
6 6 5 2 1 2 5 4 1 7 9 10 11 12 13 13 13 13 12 10 10 11 10 9 9 9 9 8 7 7 5 3 2 2 3 4 3 3 4 4 4 3 4 4 4 3 4 4 4
5 4 2 5 2 3 3 2 2 8 11 12 14 14 14 14 14 13 12 10 9 9 9 9 8 8 8 8 7 7 7 6 5 5 5 4 4 4 4 4 4 3 3 3 4 3 4 4 4
4 2 6 4 3 2 2 3 7 13 14 14 14 14 14 14 13 13 12 11 9 8 8 8 7 7 7 8 7 6 7 6 6 5 6 5 4 4 3 3 2 2 2 1 2 3 4 5 4
7 6 5 4 4 3 1 2 4 8 10 11 12 12 12 12 12 12 11 10 9 8 8 8 8 8 8 7 7 7 7 6 6 6 5 5 4 3 3 2 1 1 0 1 2 3 5 5 5
5 4 3 4 3 3 2 2 5 6 8 9 11 11 11 10 10 10 10 9 9 8 8 8 8 8 7 7 6 7 6 6 6 6 5 5 5 5 4 3 2 1 1 1 0 2 3 5 5
Wind_Direction
297 293 119 78 53 57 81 83 91 69 63 74 85 89 89 73 95 136 139 146 138 146 151 148 144 140 137 135 134 132 128 124 121 119 116 114 112 109 106 102 99 97 95 91 90 92 96 102 104
307 151 101 62 82 82 66 119 91 100 134 120 88 92 88 72 86 107 122 142 141 146 148 148 146 142 140 139 137 135 132 129 126 124 122 121 119 115 112 109 107 104 101 98 97 97 100 107 109
266 179 94 69 109 143 169 184 139 122 117 111 88 65 85 115 119 121 142 142 140 145 147 150 147 145 143 142 140 139 136 134 132 131 129 127 124 121 117 114 112 110 108 105 102 103 106 112 112
74 57 54 72 145 190 176 190 156 115 83 79 94 62 62 132 136 134 141 143 142 145 148 152 150 149 148 146 145 144 142 139 138 137 135 133 131 128 124 120 116 114 112 110 109 111 118 123 123
79 68 48 38 339 223 188 181 142 114 95 86 89 80 38 52 123 135 143 145 143 146 151 156 155 155 154 153 153 151 148 145 144 144 142 142 141 137 132 127 123 119 118 116 115 120 132 139 138
55 58 58 12 330 322 17 96 99 101 112 112 105 101 73 121 132 143 145 146 146 150 154 159 161 161 161 160 159 157 155 153 152 153 154 153 152 149 144 138 133 129 128 127 125 129 139 146 146
87 73 55 347 330 358 16 73 106 117 128 140 126 102 117 150 146 147 148 147 149 153 156 159 164 167 167 167 166 165 164 162 163 163 162 162 162 159 156 153 150 148 147 147 146 148 155 160 161
113 90 46 9 353 331 331 25 104 106 111 130 120 129 159 186 157 148 149 149 153 157 162 163 167 169 171 173 174 173 172 172 173 172 170 171 170 168 167 166 166 168 170 172 175 181 188 197 204
87 76 71 358 338 309 329 19 37 61 83 69 81 142 161 163 152 145 148 150 160 167 171 171 172 174 175 176 181 180 180 181 181 180 179 178 176 175 177 179 182 185 188 194 202 211 223 241 262
93 112 179 188 196 265 315 350 52 69 67 64 74 102 141 155 156 157 161 167 174 178 182 181 181 181 179 184 184 182 184 185 185 185 184 182 183 186 189 195 195 197 202 209 219 231 242 252 267
113 147 168 173 203 234 305 345 28 102 92 159 154 154 160 166 168 172 175 178 183 183 185 186 187 186 184 187 180 184 185 185 188 190 190 188 191 201 206 201 206 207 211 218 234 246 253 255 258
72 140 162 180 210 219 220 238 42 83 197 191 168 162 164 171 179 183 185 186 185 184 190 189 189 188 189 186 183 185 186 189 194 199 199 194 195 202 196 197 202 206 213 217 228 240 252 257 253
55 192 193 191 207 216 203 117 90 23 12 77 123 129 142 156 167 194 198 187 185 189 192 190 190 191 189 185 186 188 192 195 198 201 204 198 193 191 189 201 206 212 218 219 222 230 240 247 250
217 225 271 276 287 340 67 37 49 5 25 63 82 90 95 99 90 55 43 59 182 191 201 195 192 192 188 187 189 190 193 196 197 201 204 201 198 192 192 200 208 215 220 222 219 221 217 213 192
325 346 341 357 3 6 71 41 22 360 41 55 56 67 68 57 54 48 38 36 32 23 352 210 199 194 191 191 192 190 193 194 197 204 207 206 203 198 196 200 206 214 220 223 215 213 186 177 163
16 28 359 1 19 0 73 61 360 6 50 49 39 40 48 47 44 43 41 39 34 26 18 356 235 204 198 198 197 193 193 194 199 203 206 210 209 201 193 195 201 203 205 198 180 164 146 157 137
25 19 1 356 20 17 68 77 6 20 50 51 39 30 28 35 32 30 35 36 32 28 20 12 1 334 226 211 203 201 194 196 198 199 201 209 209 202 188 189 191 187 179 173 172 151 146 144 146
349 9 9 12 3 30 54 53 37 38 52 47 39 30 20 26 22 19 26 30 30 26 22 18 10 4 339 268 222 209 202 202 197 196 199 199 199 197 184 181 178 169 161 162 155 144 137 143 154
70 69 30 11 5 39 67 64 47 42 46 39 31 24 15 13 10 11 16 18 21 20 18 16 9 2 357 331 246 214 209 206 201 198 194 192 189 185 178 176 169 162 164 166 155 140 137 135 128
48 48 13 336 350 43 82 67 51 46 43 37 29 18 9 5 5 5 7 11 14 13 9 6 1 351 342 321 280 234 217 216 205 196 182 185 181 179 180 170 166 163 155 157 157 145 140 146 139
25 34 344 319 348 21 101 61 36 34 34 30 24 17 10 4 360 358 1 4 6 6 1 357 352 345 334 323 301 263 204 209 205 204 191 184 176 174 170 164 159 162 161 168 170 161 156 166 175
335 326 321 313 359 326 42 103 26 7 18 16 10 8 1 355 355 354 356 355 356 353 350 348 347 344 337 330 312 255 216 209 207 201 190 183 173 167 162 160 161 168 167 166 175 174 169 159 172
309 307 310 300 174 40 16 99 16 3 7 2 358 357 353 349 348 346 345 342 344 345 346 346 346 347 342 337 325 289 243 225 205 183 173 173 160 163 159 156 159 166 167 167 172 166 172 174 173
336 353 23 42 70 55 344 81 29 5 349 344 347 346 342 342 340 339 337 341 343 344 346 345 347 346 345 345 345 331 269 223 189 182 180 171 158 157 153 148 153 161 162 167 170 169 170 179 180
23 44 31 22 28 22 22 73 40 341 345 340 338 336 339 340 341 340 340 343 345 344 343 342 346 345 346 352 359 357 350 261 183 180 175 164 160 154 156 147 151 156 155 160 159 162 174 179 187
17 77 106 110 315 332 29 55 333 340 340 338 339 340 345 346 344 341 340 341 342 339 339 342 345 346 350 359 2 7 14 34 57 93 126 136 136 130 132 131 137 141 153 155 161 163 182 189 194
23 14 150 141 58 62 39 8 311 345 348 349 350 351 351 347 345 343 342 343 339 336 336 342 350 355 360 5 11 21 27 38 52 66 81 89 95 103 103 115 122 138 156 160 158 164 197 194 193
55 32 57 70 80 61 29 5 337 334 339 341 344 347 345 343 344 347 347 345 341 336 336 349 1 3 7 13 18 29 31 40 51 64 73 78 82 84 86 90 108 125 134 141 157 184 201 185 186
8 21 57 80 101 115 52 345 323 312 321 327 330 330 332 338 339 338 341 343 345 346 353 1 2 8 12 14 19 26 27 33 47 54 60 66 67 71 77 75 75 92 187 209 198 208 195 182 191
52 28 77 109 67 82 110 302 295 301 306 315 321 323 325 330 329 331 338 347 351 355 358 3 7 12 11 13 23 26 26 33 38 39 44 52 52 46 39 35 38 19 354 351 229 238 218 202 195
Height
1516 1515 1514 1515 1517 1528 1529 1521 1513 1512 1512 1511 1510 1511 1516 1520 1523 1530 1528 1529 1532 1535 1537 1540 1542 1544 1545 1546 1547 1548 1549 1549 1550 1550 1551 1552 1552 1552 1553 1553 1553 1553 1553 1553 1554 1555 1555 1556 1557
1516 1515 1515 1515 1527 1541 1532 1517 1514 1511 1512 1511 1512 1514 1517 1520 1521 1523 1526 1530 1533 1535 1537 1540 1542 1544 1545 1546 1547 1548 1549 1550 1550 1551 1552 1552 1553 1553 1554 1554 1554 1554 1554 1554 1554 1555 1556 1557 1558
1515 1514 1516 1518 1529 1536 1528 1515 1511 1509 1510 1510 1514 1516 1519 1522 1522 1524 1527 1530 1533 1535 1538 1540 1542 1544 1545 1546 1547 1548 1549 1550 1551 1551 1552 1553 1553 1554 1554 1554 1554 1554 1554 1554 1554 1555 1556 1557 1558
1515 1515 1516 1523 1526 1520 1515 1511 1509 1510 1512 1512 1514 1519 1522 1524 1523 1525 1528 1531 1534 1536 1538 1540 1542 1544 1545 1546 1548 1548 1549 1550 1551 1552 1552 1553 1554 1554 1554 1554 1554 1554 1554 1555 1555 1555 1556 1557 1558
1514 1515 1522 1528 1523 1514 1510 1508 1508 1510 1513 1515 1515 1521 1524 1525 1525 1526 1529 1532 1534 1536 1539 1541 1542 1544 1545 1546 1547 1548 1549 1550 1551 1552 1553 1553 1554 1554 1554 1554 1554 1554 1555 1555 1555 1556 1556 1557 1559
1516 1517 1531 1536 1526 1514 1510 1509 1509 1512 1515 1517 1518 1522 1527 1527 1526 1528 1531 1534 1536 1537 1539 1541 1543 1544 1545 1546 1547 1548 1549 1550 1551 1552 1552 1553 1554 1554 1554 1554 1554 1555 1555 1555 1556 1556 1557 1558 1559
1518 1523 1532 1533 1528 1519 1513 1510 1510 1512 1514 1516 1517 1523 1528 1530 1529 1530 1533 1535 1537 1538 1540 1541 1543 1544 1545 1546 1547 1548 1549 1550 1551 1551 1552 1553 1553 1554 1554 1554 1554 1555 1555 1555 1556 1557 1558 1559 1560
1519 1524 1531 1532 1530 1523 1514 1511 1511 1512 1515 1517 1517 1521 1526 1529 1530 1531 1533 1535 1537 1539 1540 1541 1542 1544 1545 1546 1546 1547 1548 1549 1550 1551 1552 1552 1553 1554 1554 1554 1554 1555 1555 1556 1556 1557 1558 1559 1560
1520 1530 1537 1533 1531 1525 1517 1514 1514 1514 1515 1517 1517 1518 1521 1526 1529 1531 1533 1535 1537 1538 1539 1540 1542 1543 1544 1545 1546 1547 1547 1548 1549 1550 1551 1552 1552 1553 1554 1554 1554 1555 1555 1556 1557 1558 1559 1560 1561
1520 1533 1531 1528 1526 1524 1520 1517 1516 1517 1517 1519 1520 1521 1523 1525 1528 1529 1531 1532 1534 1536 1538 1539 1540 1541 1543 1544 1544 1545 1546 1547 1548 1549 1550 1551 1552 1553 1554 1554 1554 1555 1555 1556 1557 1558 1559 1560 1561
1519 1525 1525 1524 1522 1521 1520 1519 1517 1518 1520 1520 1519 1521 1523 1525 1527 1528 1528 1529 1531 1533 1535 1537 1538 1540 1541 1542 1543 1544 1545 1546 1547 1548 1549 1550 1551 1552 1553 1553 1554 1555 1555 1556 1557 1558 1559 1561 1561
1519 1521 1521 1522 1520 1520 1519 1518 1518 1518 1520 1518 1518 1519 1522 1524 1525 1526 1527 1528 1529 1531 1533 1534 1536 1537 1539 1540 1541 1542 1543 1544 1545 1547 1548 1549 1550 1551 1552 1553 1554 1555 1556 1557 1558 1559 1559 1560 1561
1519 1520 1520 1519 1519 1518 1518 1518 1519 1521 1521 1519 1519 1522 1523 1525 1526 1528 1528 1529 1529 1530 1531 1532 1533 1534 1536 1537 1539 1540 1541 1542 1544 1545 1546 1548 1549 1550 1552 1553 1554 1555 1556 1557 1558 1558 1559 1560 1560
1518 1518 1518 1518 1517 1518 1518 1520 1522 1525 1523 1522 1522 1524 1525 1526 1527 1528 1528 1528 1529 1529 1530 1530 1531 1531 1533 1534 1536 1537 1539 1540 1542 1543 1544 1546 1548 1549 1551 1552 1554 1555 1556 1557 1558 1558 1559 1559 1560
1517 1518 1519 1519 1519 1519 1520 1527 1528 1528 1526 1526 1527 1527 1527 1528 1528 1528 1527 1527 1527 1528 1528 1529 1530 1530 1531 1532 1533 1535 1536 1538 1539 1541 1542 1544 1546 1547 1549 1551 1553 1554 1555 1556 1557 1558 1558 1559 1560
1520 1525 1531 1525 1523 1522 1526 1537 1533 1530 1528 1530 1531 1531 1530 1530 1530 1529 1528 1527 1526 1526 1526 1527 1528 1528 1529 1530 1531 1532 1533 1535 1536 1538 1540 1542 1544 1545 1547 1549 1550 1552 1554 1555 1556 1557 1557 1558 1559
1534 1540 1538 1532 1528 1526 1529 1538 1537 1534 1533 1534 1536 1536 1535 1533 1532 1531 1529 1527 1526 1525 1525 1525 1525 1525 1526 1527 1528 1529 1530 1532 1533 1535 1537 1539 1541 1543 1544 1546 1548 1550 1552 1553 1554 1555 1556 1557 1558
1545 1542 1542 1540 1534 1532 1536 1542 1542 1540 1539 1541 1540 1540 1539 1535 1534 1533 1530 1528 1527 1525 1524 1523 1523 1523 1523 1524 1525 1526 1527 1528 1530 1531 1533 1535 1538 1540 1542 1543 1545 1547 1549 1550 1552 1553 1554 1555 1556
1539 1543 1545 1541 1536 1537 1544 1548 1549 1547 1545 1546 1546 1545 1543 1539 1536 1533 1530 1528 1526 1523 1522 1521 1520 1520 1520 1521 1521 1522 1523 1524 1525 1527 1529 1531 1533 1536 1538 1540 1542 1543 1545 1547 1549 1551 1552 1553 1554
1541 1546 1548 1543 1538 1539 1548 1553 1553 1553 1553 1553 1551 1548 1545 1541 1536 1533 1529 1527 1525 1523 1521 1520 1518 1518 1517 1517 1517 1518 1519 1520 1522 1523 1525 1527 1529 1531 1534 1536 1538 1540 1542 1544 1546 1547 1548 1550 1551
1545 1548 1548 1547 1542 1540 1547 1558 1558 1557 1556 1554 1553 1550 1547 1544 1538 1534 1530 1527 1525 1522 1520 1518 1516 1515 1514 1513 1513 1513 1515 1516 1518 1519 1520 1522 1524 1527 1529 1531 1534 1536 1538 1540 1542 1544 1545 1546 1547
1551 1544 1542 1542 1549 1556 1551 1567 1567 1562 1559 1557 1555 1551 1548 1544 1539 1535 1531 1527 1524 1522 1520 1516 1514 1511 1510 1509 1509 1509 1509 1510 1511 1513 1515 1517 1519 1522 1525 1526 1529 1532 1534 1536 1538 1540 1541 1542 1543
1548 1541 1541 1541 1547 1558 1558 1567 1574 1566 1565 1562 1559 1554 1550 1546 1541 1536 1532 1529 1525 1522 1518 1515 1511 1508 1506 1505 1504 1504 1504 1505 1506 1508 1510 1512 1514 1517 1519 1522 1524 1527 1530 1532 1534 1535 1536 1537 1538
1545 1544 1544 1549 1557 1572 1569 1571 1579 1576 1573 1567 1561 1556 1551 1546 1541 1536 1533 1529 1524 1521 1517 1513 1510 1507 1504 1502 1500 1499 1499 1499 1501 1502 1504 1507 1509 1511 1513 1517 1520 1522 1525 1527 1529 1531 1533 1533 1534
1552 1561 1571 1574 1579 1580 1571 1576 1584 1577 1573 1569 1563 1557 1552 1546 1541 1536 1532 1528 1523 1520 1517 1513 1509 1506 1503 1500 1498 1497 1496 1496 1497 1498 1500 1502 1505 1507 1509 1512 1515 1518 1520 1523 1525 1527 1529 1530 1531
1559 1566 1581 1586 1586 1583 1577 1582 1583 1577 1573 1570 1564 1558 1552 1547 1541 1536 1532 1527 1523 1520 1517 1513 1509 1506 1502 1500 1497 1496 1495 1494 1495 1496 1498 1499 1501 1503 1506 1508 1511 1513 1516 1518 1521 1523 1525 1527 1528
1564 1568 1568 1578 1578 1585 1585 1583 1578 1575 1572 1568 1564 1558 1553 1547 1542 1536 1531 1527 1524 1521 1517 1514 1510 1506 1503 1500 1498 1496 1495 1494 1494 1495 1496 1497 1499 1501 1503 1506 1507 1510 1513 1516 1518 1520 1522 1524 1525
1564 1566 1574 1580 1587 1592 1588 1587 1588 1579 1574 1569 1565 1559 1554 1549 1543 1537 1532 1528 1525 1521 1518 1514 1511 1507 1504 1502 1500 1498 1497 1496 1496 1496 1496 1497 1499 1500 1502 1504 1506 1509 1511 1514 1516 1518 1520 1522 1523
1570 1571 1575 1582 1584 1593 1594 1595 1585 1582 1577 1572 1567 1561 1556 1551 1545 1540 1535 1530 1527 1523 1519 1516 1512 1509 1507 1504 1503 1501 1500 1499 1498 1498 1498 1499 1500 1501 1502 1504 1506 1508 1511 1512 1514 1516 1518 1520 1521
1570 1572 1576 1586 1589 1590 1594 1597 1583 1581 1577 1572 1567 1562 1557 1553 1548 1543 1538 1533 1529 1525 1521 1518 1515 1512 1510 1508 1506 1504 1503 1502 1501 1501 1501 1501 1502 1503 1504 1505 1507 1509 1510 1512 1513 1515 1517 1518 1520